Weather History for Fitchburg, MA

Change the Weather History Date:

Wednesday, December 5, 2012

  Actual Average (KORH) Record (KORH)
Temperature  
Mean Temperature 46 °F 33 °F  
Max Temperature 57 °F 40 °F 61 °F (2001)
Min Temperature 32 °F 27 °F 0 °F (1926)
Degree Days  
Heating Degree Days 20 32  
Month to date heating degree days 155  
Since 1 July heating degree days 1557  
Cooling Degree Days 0 0  
Month to date cooling degree days 0  
Year to date cooling degree days 471  
Moisture  
Dew Point 35 °F    
Average Humidity 62    
Maximum Humidity 84    
Minimum Humidity 45    
Precipitation  
Precipitation 0.01 in 0.13 in 1.89 in (1993)
Month to date precipitation 0.67  
Year to date precipitation 44.92  
Sea Level Pressure  
Sea Level Pressure 29.96 in    
Wind  
Wind Speed 11 mph (West)    
Max Wind Speed 21 mph    
Max Gust Speed 31 mph    
Visibility 10 miles    
Events Rain    
T = Trace of Precipitation, MM = Missing Value Source: NWS Daily Summary

Daily Weather History Graph

Daily Weather History Graph

Search for Another Location

Airport:

Trip Planner

Search our weather history database for the weather conditions in past years. The results will help you decide how hot, cold, wet, or windy it might be!

Date:

Astronomy

Dec. 05, 2012 Rise Set
Actual Time 7:01 AM EST 4:13 PM EST
Civil Twilight 6:30 AM EST 4:45 PM EST
Nautical Twilight 5:54 AM EST 5:20 PM EST
Astronomical Twilight 5:20 AM EST 5:54 PM EST
Moon 11:06 PM EST (12/5) 11:18 AM EST (12/5)
Length of Visible Light 10h 15m
Length of Day
9h 12m
Waning Gibbous, 60% of the Moon is Illuminated
Dec 5
Waning Gibbous
Dec 6
Last Quarter
Dec 13
New
Dec 20
First Quarter
Dec 28
Full

Hourly Weather History & Observations

Time (EST) Temp. Windchill Dew Point Humidity Pressure Visibility Wind Dir Wind Speed Gust Speed Precip Events Conditions
12:52 AM 57.9 °F - 53.1 °F 84% 29.92 in 10.0 mi South 10.4 mph 18.4 mph N/A   Mostly Cloudy
1:12 AM 57.2 °F - 51.8 °F 82% 29.91 in 10.0 mi SSE 5.8 mph - N/A   Partly Cloudy
1:52 AM 57.0 °F - 52.0 °F 83% 29.90 in 10.0 mi SSE 6.9 mph - N/A   Clear
2:52 AM 57.9 °F - 52.0 °F 81% 29.87 in 10.0 mi South 9.2 mph - N/A   Mostly Cloudy
3:52 AM 57.0 °F - 52.0 °F 83% 29.84 in 10.0 mi SSW 6.9 mph - 0.00 in Rain Light Rain
4:30 AM 57.2 °F - 51.8 °F 82% 29.85 in 9.0 mi SW 4.6 mph - 0.00 in Rain Light Rain
4:52 AM 57.0 °F - 52.0 °F 83% 29.86 in 10.0 mi West 13.8 mph 25.3 mph 0.01 in   Overcast
5:05 AM 55.4 °F - 48.2 °F 77% 29.86 in 10.0 mi NW 11.5 mph 25.3 mph N/A   Overcast
5:52 AM 55.0 °F - 46.9 °F 74% 29.89 in 10.0 mi West 10.4 mph - 0.00 in Rain Light Rain
6:52 AM 52.0 °F - 44.1 °F 74% 29.89 in 10.0 mi WNW 15.0 mph 21.9 mph 0.00 in   Overcast
7:52 AM 51.1 °F - 42.1 °F 71% 29.91 in 10.0 mi WNW 9.2 mph 18.4 mph N/A   Overcast
9:52 AM 51.1 °F - 36.0 °F 56% 29.94 in 10.0 mi West 17.3 mph 21.9 mph N/A   Clear
10:52 AM 52.0 °F - 36.0 °F 54% 29.93 in 10.0 mi WNW 16.1 mph 28.8 mph N/A   Partly Cloudy
11:52 AM 52.0 °F - 34.0 °F 50% 29.92 in 10.0 mi WNW 15.0 mph 23.0 mph N/A   Scattered Clouds
12:52 PM 52.0 °F - 30.9 °F 45% 29.92 in 10.0 mi West 20.7 mph 28.8 mph N/A   Partly Cloudy
1:52 PM 51.1 °F - 30.9 °F 46% 29.92 in 10.0 mi West 15.0 mph 28.8 mph N/A   Mostly Cloudy
2:52 PM 46.9 °F - 28.0 °F 48% 29.95 in 10.0 mi WNW 19.6 mph 28.8 mph N/A   Clear
3:52 PM 44.1 °F 37.4 °F 26.1 °F 49% 29.99 in 10.0 mi WNW 13.8 mph 20.7 mph N/A   Mostly Cloudy
4:52 PM 42.1 °F 34.9 °F 25.0 °F 51% 30.02 in 10.0 mi WNW 13.8 mph 23.0 mph N/A   Overcast
5:52 PM 39.9 °F 32.1 °F 21.0 °F 47% 30.04 in 10.0 mi NW 13.8 mph 21.9 mph N/A   Overcast
6:52 PM 39.0 °F 30.3 °F 19.9 °F 46% 30.06 in 10.0 mi NW 16.1 mph 29.9 mph N/A   Overcast
7:52 PM 37.9 °F 29.6 °F 18.0 °F 45% 30.09 in 10.0 mi NW 13.8 mph 23.0 mph N/A   Overcast
8:52 PM 36.0 °F 27.1 °F 19.0 °F 50% 30.10 in 10.0 mi NW 13.8 mph 29.9 mph N/A   Overcast
9:52 PM 35.1 °F 25.2 °F 17.1 °F 48% 30.13 in 10.0 mi NW 16.1 mph 31.1 mph N/A   Overcast
10:52 PM 34.0 °F 24.2 °F 15.1 °F 46% 30.14 in 10.0 mi NW 15.0 mph 21.9 mph N/A   Overcast
11:52 PM 32.0 °F 21.2 °F 12.9 °F 45% 30.16 in 10.0 mi WNW 16.1 mph 23.0 mph N/A   Clear